TimeEDT,TemperatureF,Dew PointF,Humidity,Sea Level PressureIn,VisibilityMPH,Wind Direction,Wind SpeedMPH,Gust SpeedMPH,PrecipitationIn,Events,Conditions,WindDirDegrees,DateUTC
12:56 AM,54.0,53.1,97,30.26,6.0,Calm,Calm,-,N/A,,Clear,0,2013-08-18 04:56:00
1:56 AM,55.0,53.1,93,30.24,9.0,East,4.6,-,N/A,,Clear,80,2013-08-18 05:56:00
2:56 AM,53.1,52.0,96,30.24,9.0,East,3.5,-,N/A,,Clear,80,2013-08-18 06:56:00
3:56 AM,54.0,52.0,93,30.24,10.0,East,3.5,-,N/A,,Clear,80,2013-08-18 07:56:00
4:56 AM,54.0,51.1,90,30.23,10.0,East,4.6,-,N/A,,Clear,80,2013-08-18 08:56:00
5:56 AM,52.0,50.0,93,30.24,10.0,Calm,Calm,-,N/A,,Clear,0,2013-08-18 09:56:00
6:56 AM,50.0,48.9,96,30.25,10.0,Calm,Calm,-,N/A,,Clear,0,2013-08-18 10:56:00
7:56 AM,57.0,54.0,89,30.25,10.0,Calm,Calm,-,N/A,,Clear,0,2013-08-18 11:56:00
8:56 AM,64.0,57.0,78,30.26,10.0,Calm,Calm,-,N/A,,Clear,0,2013-08-18 12:56:00
9:56 AM,71.1,57.9,63,30.25,10.0,Calm,Calm,-,N/A,,Clear,0,2013-08-18 13:56:00
10:56 AM,73.9,57.0,55,30.25,10.0,Variable,3.5,-,N/A,,Clear,0,2013-08-18 14:56:00
11:56 AM,77.0,57.9,52,30.22,10.0,Calm,Calm,-,N/A,,Clear,0,2013-08-18 15:56:00
12:56 PM,79.0,55.9,45,30.21,10.0,Variable,3.5,-,N/A,,Clear,0,2013-08-18 16:56:00
1:56 PM,79.0,55.9,45,30.19,10.0,Variable,5.8,-,N/A,,Clear,0,2013-08-18 17:56:00
2:56 PM,79.0,57.0,47,30.16,10.0,West,5.8,-,N/A,,Clear,260,2013-08-18 18:56:00
3:56 PM,79.0,57.9,48,30.14,10.0,WSW,8.1,-,N/A,,Clear,250,2013-08-18 19:56:00
4:56 PM,79.0,57.9,48,30.14,10.0,West,9.2,-,N/A,,Clear,260,2013-08-18 20:56:00
5:56 PM,78.1,57.9,50,30.13,10.0,SW,5.8,-,N/A,,Clear,230,2013-08-18 21:56:00
6:56 PM,73.9,60.1,62,30.12,10.0,SW,5.8,-,N/A,,Clear,230,2013-08-18 22:56:00
7:56 PM,70.0,61.0,73,30.11,10.0,SSW,3.5,-,N/A,,Clear,200,2013-08-18 23:56:00
8:56 PM,63.0,60.1,90,30.10,10.0,Calm,Calm,-,N/A,,Clear,0,2013-08-19 00:56:00
9:56 PM,59.0,55.9,90,30.09,10.0,Calm,Calm,-,N/A,,Clear,0,2013-08-19 01:56:00
10:56 PM,57.9,55.9,93,30.09,10.0,Calm,Calm,-,N/A,,Clear,0,2013-08-19 02:56:00
11:56 PM,55.9,54.0,93,30.10,10.0,Calm,Calm,-,N/A,,Clear,0,2013-08-19 03:56:00